Погода в Покрово-Васильевке

Россия / Тамбовская область     53°24′06″N   41°01′46″E
темп.,
°C
ветер,
м/с
пор.,
м/с
влажн.,
%
обл.,
%
осадки,
мм/ч
давл.,
гПа
погр.,
м
18 апреля, вс
вс1800:00+8зюз3490100 8.3 1019372
03:00+7зюз239148 9.4 1019100
06:00+7ююв11921 0.0 101922
09:00+10ююв23712 0.0 1019643
12:00+13ююв345466 0.1 10181660
15:00+11ююз3463100 0.3 1019728
18:00+11всв1167100 0.1 101838
21:00+10всв3372100 0.1 101969
19 апреля, пн
пн1900:00+8в5891100 0.4 1019261
03:00+7всв6991100 1.1 1019404
06:00+7всв5989100 2.7 1019499
09:00+7всв6886100 4.1 1019764
12:00+5всв81190100 0.8 1019685
15:00+3всв81295100 1.9 1019550
18:00+5всв71390100 2.9 1019669
21:00+5в71292100 8.8 1019672
20 апреля, вт
вт2000:00+6в7139390 0.6 1019616
03:00+6в61292100 0.6 1019598
06:00+5вюв7129298 0.0 1019525
09:00+6вюв71288100 0.2 1020640
12:00+6вюв81385100 0.2 1019703
15:00+9в91475100 0.3 1016961
18:00+6вюв101875100 0.1 10141021
21:00+6вюв132389100 7.4 10091084
21 апреля, ср
ср2100:00+7юв122289100 6.6 10071134
03:00+7юв112088100 7.8 1006949
06:00+8юв91692100 0.3 10051004
09:00+9ю91587100 2.3 10061384
12:00+8ю91490100 0.3 10071198
15:00+8ююз61278100 0.5 10111274
18:00+7юз71279100 0.0 1014997
21:00+7ююз61182100 0.1 1016618
22 апреля, чт
чт2200:00+6юз4980100 0.1 1018372
03:00+6ююз3885100 0.1 1019254
06:00+6ююз3782100 0.0 1021243
09:00+7ю367786 0.1 1022295
12:00+11ююз565499 0.1 10231726
15:00+12юз455074 0.2 10231782
18:00+10ююз356997 0.1 1023203
21:00+9ю3671100 0.1 1024138